Weather observations for the past three days for
Forest City Municipal Airport
Imperial (Metric)
Date Time (cdt) Wind (mph) Vis. (mi.) Weather Sky Cond. Temperature (ºF) Relative Humidity Wind Chill (°F) Heat Index (°F) Pressure Precipitation (in)
Air Dwpt 6 hour altimeter (in) sea level (mb) 1 hr 3 hr 6 hr
Max. Min.
13 16:55 S 8 10.00 Mostly Cloudy BKN033 86 73.4 66% 93 29.95 0.0
13 16:35 SW 12 G 21 10.00 Partly Cloudy SCT029 86 75.2 70% 95 29.95 0.0
13 16:15 S 10 10.00 Mostly Cloudy SCT029 BKN038 86 75.2 70% 95 29.96 0.0
13 15:55 S 10 10.00 Mostly Cloudy BKN031 BKN038 86 75.2 70% 95 29.96 0.0
13 15:35 S 10 10.00 Mostly Cloudy BKN028 BKN035 BKN040 86 75.2 70% 95 29.98 0.0
13 15:15 S 7 10.00 Partly Cloudy SCT027 SCT034 86 75.2 70% 95 29.98 0.0
13 14:55 S 13 G 17 10.00 Partly Cloudy SCT027 86 73.4 66% 93 29.98 0.0
13 14:35 S 16 G 20 10.00 Mostly Cloudy BKN027 BKN031 84.2 73.4 70% 91 29.98 0.0
13 14:15 S 17 G 22 10.00 Mostly Cloudy BKN027 86 75.2 70% 95 29.98 0.0
13 13:55 SE 13 10.00 Overcast OVC025 82.4 73.4 74% 88 29.99 0.0
13 13:35 SE 15 G 22 10.00 Overcast OVC023 82.4 73.4 74% 88 29.99 0.0
13 13:15 SE 20 10.00 Mostly Cloudy BKN023 82.4 73.4 74% 88 29.99 0.0
13 12:55 SE 17 G 24 10.00 Fair CLR 82.4 73.4 74% 88 29.99 0.0
13 12:35 SE 16 10.00 Fair CLR 82.4 73.4 74% 88 29.99 0.0
13 12:15 SE 9 10.00 Fair CLR 80.6 71.6 74% 85 30.01 0.0
13 11:55 SE 10 10.00 Fair CLR 80.6 73.4 79% 85 30.01 0.0
13 11:35 SE 8 10.00 Fair CLR 80.6 71.6 74% 85 30.02 0.0
13 11:15 SE 8 10.00 Fair CLR 80.6 71.6 74% 85 30.01 0.0
13 10:55 E 3 10.00 Partly Cloudy SCT015 80.6 71.6 74% 85 30.02 0.0
13 10:35 SE 5 10.00 Fair CLR 78.8 71.6 79% 82 30.02 0.0
13 10:15 SE 5 10.00 Mostly Cloudy BKN040 78.8 71.6 79% 82 30.02 0.0
13 09:55 E 5 10.00 Mostly Cloudy BKN040 77 69.8 79% 79 30.04 0.0
13 09:35 Calm 10.00 Partly Cloudy SCT040 75.2 69.8 83% 75 30.04 0.0
13 09:15 SE 6 10.00 Fair CLR 77 69.8 79% 79 30.04 0.0
13 08:55 SE 8 10.00 Fair CLR 73.4 69.8 89% 30.04 0.0
13 08:35 SE 8 10.00 Fair CLR 71.6 69.8 94% 30.04 0.0
13 08:15 SE 8 10.00 Fair CLR 71.6 69.8 94% 30.04 0.0
13 07:55 SE 8 10.00 Fair CLR 71.6 69.8 94% 30.04 0.0
13 07:35 SE 7 7.00 Fair CLR 71.6 68 88% 30.06 0.0
13 07:15 E 5 7.00 Fair CLR 69.8 68 94% 30.06 0.0
13 06:55 Calm 5.00 Fog/Mist CLR 69.8 68 94% 30.06 0.0
13 06:35 E 5 5.00 Fog/Mist CLR 68 68 100% 30.04 0.0
13 06:15 SE 5 7.00 Fair CLR 68 68 100% 30.03 0.0
13 05:55 SE 6 5.00 Fog/Mist CLR 68 66.2 94% 30.03 0.0
13 05:35 SE 6 7.00 Fair CLR 68 68 100% 30.04 0.0
13 05:15 SE 6 7.00 Fair CLR 68 68 100% 30.05 0.0
13 04:55 SE 7 7.00 Fair CLR 68 68 100% 30.05 0.0
13 04:35 SE 8 7.00 Fair CLR 68 68 100% 30.04 0.0
13 04:15 SE 5 10.00 Fair CLR 68 68 100% 30.04 0.0
13 03:55 SE 7 10.00 Fair CLR 68 68 100% 30.04 0.0
13 03:35 SE 7 7.00 Fair CLR 68 68 100% 30.04 0.0
13 03:15 SE 7 10.00 Fair CLR 69.8 68 94% 30.05 0.0
13 02:55 SE 7 10.00 Fair CLR 69.8 68 94% 30.04 0.0
13 02:35 SE 8 10.00 Fair CLR 69.8 68 94% 30.04 0.0
13 02:15 SE 8 10.00 Fair CLR 69.8 68 94% 30.04 0.0
13 01:55 SE 8 10.00 Fair CLR 69.8 68 94% 30.04 0.0
13 01:35 SE 9 10.00 Fair CLR 69.8 68 94% 30.06 0.0
13 01:15 SE 8 10.00 Partly Cloudy SCT038 69.8 68 94% 30.06 0.0
13 00:55 SE 7 10.00 Mostly Cloudy BKN038 69.8 68 94% 30.06 0.0
13 00:35 SE 8 10.00 Mostly Cloudy BKN038 71.6 68 88% 30.06 0.0
13 00:15 SE 7 10.00 Partly Cloudy SCT045 69.8 68 94% 30.06 0.0
12 23:55 SE 7 10.00 Mostly Cloudy BKN045 71.6 68 88% 30.06 0.0
12 23:35 SE 6 10.00 Overcast OVC041 71.6 68 88% 30.07 0.0
12 23:15 SE 6 10.00 Mostly Cloudy BKN039 71.6 68 88% 30.07 0.0
12 22:55 SE 6 10.00 Fair CLR 69.8 68 94% 30.07 0.0
12 22:35 SE 6 10.00 Fair CLR 69.8 68 94% 30.07 0.0
12 22:15 SE 6 10.00 Fair CLR 71.6 68 88% 30.06 0.0
12 21:55 SE 6 10.00 Fair CLR 71.6 68 88% 30.06 0.0
12 21:35 Calm 10.00 Fair CLR 71.6 68 88% 30.06 0.0
12 21:15 SE 3 10.00 Fair CLR 71.6 68 88% 30.06 0.0
12 20:55 SE 6 10.00 Fair CLR 73.4 68 83% 30.06 0.0
12 20:35 SE 5 10.00 Partly Cloudy SCT043 73.4 68 83% 30.06 0.0
12 20:15 SE 6 10.00 Partly Cloudy SCT043 73.4 68 83% 30.06 0.0
12 19:55 SE 8 10.00 Partly Cloudy SCT045 SCT050 77 68 74% 79 30.06 0.0
12 19:35 Calm 10.00 Partly Cloudy SCT045 SCT050 77 68 74% 79 30.06 0.0
12 19:15 SE 7 10.00 Overcast OVC046 77 68 74% 79 30.06 0.0
12 18:55 SE 8 10.00 Mostly Cloudy BKN044 78.8 68 70% 81 30.06 0.0
12 18:35 SE 8 10.00 Mostly Cloudy BKN042 78.8 68 70% 81 30.05 0.0
12 18:15 SE 10 10.00 Partly Cloudy SCT040 78.8 68 70% 81 30.05 0.0
12 17:55 SE 9 10.00 Partly Cloudy SCT002 SCT042 78.8 66.2 65% 81 30.05 0.0
12 17:35 SE 12 10.00 Partly Cloudy SCT040 80.6 68 66% 83 30.05 0.0
12 17:15 SE 12 G 16 10.00 Partly Cloudy SCT040 80.6 68 66% 83 30.06 0.0
12 16:55 SE 13 G 16 10.00 Partly Cloudy SCT040 80.6 68 66% 83 30.06 0.0
12 16:35 SE 13 G 20 10.00 Partly Cloudy SCT040 80.6 66.2 62% 83 30.06 0.0
12 16:15 S 13 10.00 Partly Cloudy SCT040 80.6 66.2 62% 83 30.06 0.0
12 15:55 SE 13 10.00 Fair CLR 80.6 66.2 62% 83 30.06 0.0
12 15:35 SE 14 G 18 10.00 Fair CLR 80.6 66.2 62% 83 30.06 0.0
12 15:15 SE 14 G 20 10.00 Partly Cloudy SCT037 80.6 64.4 58% 82 30.06 0.0
12 14:55 SE 14 10.00 Partly Cloudy SCT037 80.6 68 66% 83 30.07 0.0
12 14:35 SE 15 G 18 10.00 Partly Cloudy SCT034 80.6 64.4 58% 82 30.07 0.0
12 14:15 SE 14 G 17 10.00 Partly Cloudy SCT034 80.6 66.2 62% 83 30.07 0.0
12 13:55 SE 13 G 18 10.00 Fair CLR 78.8 64.4 61% 81 30.07 0.0
12 13:35 SE 14 G 20 10.00 Partly Cloudy SCT033 78.8 66.2 65% 81 30.08 0.0
12 13:15 S 13 10.00 Fair CLR 78.8 64.4 61% 81 30.08 0.0
12 12:55 SE 12 G 20 10.00 Fair CLR 78.8 66.2 65% 81 30.09 0.0
12 12:35 S 12 G 18 10.00 Fair CLR 78.8 64.4 61% 81 30.1 0.0
12 12:15 SE 15 G 20 10.00 Partly Cloudy SCT030 77 64.4 65% 79 30.11 0.0
12 11:55 SE 9 G 17 10.00 Fair CLR 77 64.4 65% 79 30.11 0.0
12 11:35 SE 14 G 18 10.00 Fair CLR 77 64.4 65% 79 30.11 0.0
12 11:15 SE 8 10.00 Fair CLR 77 64.4 65% 79 30.12 0.0
12 10:55 SE 9 G 16 10.00 Fair CLR 75.2 64.4 69% 77 30.12 0.0
12 10:35 SE 9 10.00 NULL NULL 75.2 64.4 69% 77 30.13 0.0
12 10:15 SE 10 10.00 NULL NULL 73.4 64.4 74% 30.13 0.0
12 09:55 S 8 10.00 Fair CLR 73.4 64.4 74% 30.13 0.0
12 09:35 SE 7 10.00 Partly Cloudy SCT002 73.4 64.4 74% 30.13 0.0
12 09:15 S 7 10.00 Fair CLR 71.6 64.4 78% 30.13 0.0
12 08:55 S 7 10.00 Partly Cloudy SCT002 69.8 62.6 78% 30.13 0.0
12 08:35 Calm 10.00 Fair CLR 69.8 64.4 83% 30.12 0.0
12 08:15 Calm 10.00 Fair CLR 68 62.6 83% 30.12 0.0
12 07:55 Calm 10.00 Fair CLR 68 62.6 83% 30.12 0.0
12 07:35 Calm 10.00 Fair CLR 64.4 62.6 94% 30.12 0.0
12 07:15 Calm 10.00 Fair CLR 64.4 60.8 88% 30.11 0.0
12 06:55 Calm 7.00 Fair CLR 60.8 59 94% 30.1 0.0
12 06:35 Calm 5.00 Fog/Mist CLR 59 57.2 94% 30.09 0.0
12 06:15 Calm 7.00 Fair CLR 59 59 100% 30.09 0.0
12 05:55 Calm 5.00 Fog/Mist CLR 57.2 57.2 100% 30.09 0.0
12 05:35 Calm 5.00 Fog/Mist CLR 59 59 100% 30.09 0.0
12 05:15 Calm 10.00 Fair CLR 59 59 100% 30.08 0.0
12 04:55 Calm 7.00 Fair CLR 60.8 59 94% 30.08 0.0
12 04:35 Calm 10.00 Fair CLR 60.8 59 94% 30.08 0.0
12 04:15 Calm 10.00 Fair CLR 60.8 59 94% 30.07 0.0
12 03:55 Calm 10.00 Fair CLR 60.8 59 94% 30.07 0.0
12 03:35 Calm 10.00 Fair CLR 60.8 60.8 100% 30.07 0.0
12 02:55 Calm 10.00 Fair CLR 60.8 59 94% 30.08 0.0
12 02:35 Calm 10.00 Fair CLR 62.6 60.8 94% 30.09 0.0
12 02:15 Calm 10.00 Fair CLR 62.6 60.8 94% 30.09 0.0
12 01:55 Calm 10.00 Fair CLR 62.6 60.8 94% 30.09 0.0
12 01:35 Calm 10.00 Fair CLR 62.6 60.8 94% 30.1 0.0
12 01:15 Calm 10.00 Fair CLR 64.4 62.6 94% 30.1 0.0
12 00:55 Calm 10.00 Fair CLR 62.6 60.8 94% 30.1 0.0
12 00:35 Calm 10.00 Fair CLR 62.6 62.6 100% 30.1 0.0
12 00:15 Calm 10.00 Fair CLR 62.6 62.6 100% 30.1 0.0
11 23:55 Calm 10.00 Fair CLR 64.4 62.6 94% 30.1 0.0
11 23:35 Calm 10.00 Fair CLR 64.4 62.6 94% 30.1 0.0
11 23:15 Calm 10.00 Fair CLR 64.4 62.6 94% 30.09 0.0
11 22:55 Calm 10.00 Fair CLR 66.2 64.4 94% 30.09 0.0
11 22:35 Calm 10.00 Fair CLR 66.2 64.4 94% 30.09 0.0
11 22:15 Calm 10.00 Fair CLR 66.2 64.4 94% 30.09 0.0
11 21:55 Calm 10.00 Fair CLR 68 64.4 88% 30.08 0.0
11 21:35 Calm 10.00 Fair CLR 68 64.4 88% 30.08 0.0
11 20:35 Calm 10.00 Fair CLR 73.4 68 83% 30.07 0.0
11 20:15 Calm 10.00 Fair CLR 73.4 68 83% 30.07 0.0
11 19:55 Calm 10.00 Fair CLR 73.4 68 83% 30.07 0.0
11 19:35 SE 3 10.00 Fair CLR 77 68 74% 79 30.07 0.0
11 19:15 SE 3 10.00 Fair CLR 77 66.2 69% 79 30.07 0.0
11 18:55 SE 5 10.00 Fair CLR 78.8 64.4 61% 81 30.07 0.0
11 18:35 SE 7 10.00 Fair CLR 78.8 64.4 61% 81 30.07 0.0
11 18:15 S 3 10.00 Partly Cloudy SCT047 78.8 64.4 61% 81 30.07 0.0
11 17:55 S 7 10.00 Partly Cloudy SCT047 80.6 62.6 54% 82 30.07 0.0
11 17:35 SE 5 10.00 Partly Cloudy SCT047 80.6 64.4 58% 82 30.07 0.0
11 17:15 SE 3 10.00 Fair CLR 80.6 62.6 54% 82 30.07 0.0
11 16:55 SE 7 10.00 Fair CLR 80.6 64.4 58% 82 30.08 0.0
11 16:35 SE 6 10.00 Fair CLR 80.6 62.6 54% 82 30.08 0.0
11 16:15 SE 6 10.00 Partly Cloudy SCT046 SCT050 80.6 62.6 54% 82 30.08 0.0
11 15:55 S 7 10.00 Mostly Cloudy SCT046 BKN050 80.6 64.4 58% 82 30.08 0.0
11 15:35 Calm 10.00 Partly Cloudy SCT046 SCT050 80.6 62.6 54% 82 30.09 0.0
11 15:15 SE 5 10.00 Partly Cloudy SCT045 SCT050 SCT060 80.6 62.6 54% 82 30.09 0.0
11 14:55 SE 6 10.00 Partly Cloudy SCT045 80.6 64.4 58% 82 30.09 0.0
11 14:35 E 7 10.00 Partly Cloudy SCT047 80.6 62.6 54% 82 30.1 0.0
11 14:15 SE 6 10.00 Partly Cloudy SCT047 80.6 62.6 54% 82 30.1 0.0
11 13:55 S 7 10.00 Partly Cloudy SCT047 80.6 62.6 54% 82 30.11 0.0
11 13:35 E 3 10.00 Partly Cloudy SCT047 80.6 62.6 54% 82 30.11 0.0
11 13:15 SE 6 10.00 Partly Cloudy SCT048 80.6 60.8 51% 81 30.11 0.0
11 12:55 SE 3 10.00 Fair CLR 78.8 60.8 54% 80 30.11 0.0
11 12:35 SE 5 10.00 Fair CLR 78.8 60.8 54% 80 30.11 0.0
11 12:15 SE 3 10.00 Fair CLR 78.8 60.8 54% 80 30.11 0.0
11 11:55 Calm 10.00 Fair CLR 78.8 62.6 58% 80 30.11 0.0
11 11:35 Calm 10.00 Fair CLR 78.8 62.6 58% 80 30.11 0.0
11 11:15 Calm 10.00 Fair CLR 77 62.6 61% 79 30.11 0.0
11 10:55 Calm 10.00 Fair CLR 77 64.4 65% 79 30.11 0.0
11 10:35 Calm 10.00 Fair CLR 77 62.6 61% 79 30.1 0.0
11 10:15 Calm 10.00 Fair CLR 75.2 64.4 69% 77 30.1 0.0
11 09:55 Calm 10.00 Fair CLR 73.4 64.4 74% 30.11 0.0
11 09:35 Calm 10.00 Fair CLR 71.6 62.6 73% 30.11 0.0
11 09:15 Calm 10.00 Fair CLR 71.6 64.4 78% 30.11 0.0
11 08:55 Calm 10.00 Fair CLR 69.8 64.4 83% 30.1 0.0
11 08:35 Calm 10.00 Fair CLR 69.8 62.6 78% 30.11 0.0
11 08:15 N 3 10.00 Fair CLR 68 62.6 83% 30.1 0.0
11 07:55 N 3 10.00 Fair CLR 66.2 62.6 88% 30.11 0.0
11 07:35 N 5 10.00 Fair CLR 64.4 62.6 94% 30.1 0.0
11 07:15 Calm 10.00 Partly Cloudy SCT002 62.6 60.8 94% 30.1 0.0
11 06:55 Calm 10.00 Fair CLR 59 59 100% 30.09 0.0
11 06:35 Calm 7.00 Fair CLR 55.4 55.4 100% 30.09 0.0
11 06:15 Calm 10.00 Fair CLR 55.4 55.4 100% 30.08 0.0
11 05:55 Calm 10.00 Fair CLR 57.2 55.4 94% 30.07 0.0
11 05:35 Calm 10.00 Fair CLR 55.4 55.4 100% 30.07 0.0
11 05:15 Calm 10.00 Fair CLR 59 57.2 94% 30.06 0.0
11 04:55 Calm 10.00 Fair CLR 55.4 55.4 100% 30.06 0.0
11 04:35 Calm 10.00 Fair CLR 57.2 55.4 94% 30.06 0.0
11 04:15 Calm 10.00 Fair CLR 59 55.4 88% 30.05 0.0
11 03:55 Calm 10.00 Fair CLR 60.8 59 94% 30.05 0.0
11 03:35 Calm 10.00 Fair CLR 60.8 59 94% 30.05 0.0
11 03:15 Calm 7.00 Fair CLR 59 57.2 94% 30.05 0.0
11 02:55 Calm 10.00 Fair CLR 60.8 59 94% 30.05 0.0
11 02:35 Calm 10.00 Fair CLR 60.8 59 94% 30.05 0.0
11 02:15 Calm 10.00 Fair CLR 60.8 60.8 100% 30.05 0.0
11 01:55 Calm 10.00 Fair CLR 60.8 59 94% 30.05 0.0
11 01:35 Calm 10.00 Fair CLR 59 59 100% 30.05 0.0
11 01:15 Calm 10.00 Fair CLR 60.8 60.8 100% 30.05 0.0
11 00:55 Calm 7.00 Fair CLR 60.8 60.8 100% 30.05 0.0
11 00:35 Calm 10.00 Fair CLR 60.8 60.8 100% 30.05 0.0
11 00:15 Calm 2.00 Fog/Mist CLR 60.8 59 94% 30.06 0.0
10 23:55 Calm 10.00 Fair CLR 62.6 60.8 94% 30.06 0.0
10 23:35 Calm 10.00 Fair CLR 62.6 60.8 94% 30.05 0.0
10 23:15 Calm 10.00 Fair CLR 62.6 60.8 94% 30.05 0.0
10 22:55 Calm 10.00 Fair CLR 62.6 60.8 94% 30.05 0.0
10 22:35 Calm 10.00 Fair CLR 62.6 60.8 94% 30.04 0.0
10 22:15 Calm 10.00 Fair CLR 62.6 60.8 94% 30.04 0.0
10 21:55 Calm 10.00 Fair CLR 62.6 60.8 94% 30.03 0.0
10 21:35 Calm 10.00 Partly Cloudy SCT120 64.4 60.8 88% 30.02 0.0
10 21:15 Calm 10.00 Partly Cloudy SCT120 62.6 60.8 94% 30.02 0.0
10 20:55 Calm 10.00 Partly Cloudy SCT110 64.4 59 83% 30.02 0.0
10 20:35 Calm 10.00 Light Drizzle SCT040 BKN075 OVC110 64.4 59 83% 30.02 0.0
10 20:15 Calm 10.00 Light Rain SCT030 SCT049 BKN070 68 55.4 64% 30.02 0.0
10 19:55 NE 7 10.00 Mostly Cloudy BKN030 SCT037 BKN044 69.8 59 69% 30.03 0.0
10 19:35 E 3 10.00 Fair CLR 69.8 60.8 73% 30.03 0.0
10 19:15 E 3 10.00 Fair CLR 69.8 59 69% 30.03 0.0
10 18:55 E 7 10.00 Partly Cloudy SCT095 69.8 62.6 78% 30.02 0.0
10 18:35 N 6 10.00 Fair CLR 69.8 62.6 78% 30.01 0.0
10 18:15 N 5 10.00 Partly Cloudy SCT120 69.8 60.8 73% 30.01 0.0
10 17:55 N 8 10.00 Light Rain SCT120 69.8 62.6 78% 30.01 0.0
10 17:35 N 8 10.00 Partly Cloudy SCT100 69.8 62.6 78% 30.01 0.0
10 17:15 N 8 10.00 Partly Cloudy SCT090 SCT110 69.8 62.6 78% 30.01 0.0
Date Time (cdt) Wind (mph) Vis. (mi.) Weather Sky Cond. Air Dwpt Max. Min. Relative Humidity Wind Chill (°F) Heat Index (°F) altimeter (in) sea level (mb) 1 hr 3 hr 6 hr
6 hour
Temperature (ºF) Pressure Precipitation (in)